| time (UTC) | temp F | wind direction | speed MPH | gust MPH | rain 1hr in | rain 24hr in | rain mn in | humidity % | barometer mb |
| 20260505022007 | 74 | 72 | 3.0 | 8.0 | 0.00 | 0.00 | 0.00 | 75 | 1011.2 |
| 20260505021520 | 74 | 105 | 2.0 | 8.0 | 0.00 | 0.00 | 0.00 | 75 | 1011.0 |
| 20260505021011 | 74 | 63 | 1.0 | 6.0 | 0.00 | 0.00 | 0.00 | 74 | 1011.1 |
| 20260505020508 | 74 | 45 | 2.0 | 6.0 | 0.00 | 0.00 | 0.00 | 74 | 1011.0 |
| 20260505020030 | 74 | 86 | 1.0 | 8.0 | 0.00 | 0.00 | 0.00 | 73 | 1011.0 |
| 20260505015513 | 74 | 63 | 4.0 | 8.0 | 0.00 | 0.00 | 0.00 | 73 | 1010.9 |
| 20260505015009 | 75 | 81 | 3.0 | 7.0 | 0.00 | 0.00 | 0.00 | 73 | 1011.0 |
| 20260505014529 | 75 | 84 | 3.0 | 7.0 | 0.00 | 0.00 | 0.00 | 73 | 1011.0 |
| 20260505014015 | 75 | 63 | 3.0 | 8.0 | 0.00 | 0.00 | 0.00 | 73 | 1010.9 |
| 20260505013514 | 75 | 75 | 1.0 | 8.0 | 0.00 | 0.00 | 0.00 | 73 | 1010.9 |
| 20260505013025 | 75 | 59 | 3.0 | 8.0 | 0.00 | 0.00 | 0.00 | 73 | 1010.7 |
| 20260505012506 | 75 | 71 | 3.0 | 9.0 | 0.00 | 0.00 | 0.00 | 73 | 1010.7 |
| 20260505012011 | 75 | 109 | 3.0 | 9.0 | 0.00 | 0.00 | 0.00 | 72 | 1010.7 |
| 20260505011529 | 75 | 79 | 2.0 | 8.0 | 0.00 | 0.00 | 0.00 | 73 | 1010.6 |
| 20260505011006 | 75 | 57 | 3.0 | 8.0 | 0.00 | 0.00 | 0.00 | 72 | 1010.6 |
| 20260505010508 | 75 | 64 | 2.0 | 8.0 | 0.00 | 0.00 | 0.00 | 72 | 1010.6 |
| 20260505010023 | 75 | 63 | 2.0 | 8.0 | 0.00 | 0.00 | 0.00 | 72 | 1010.7 |
| 20260505005507 | 75 | 86 | 3.0 | 8.0 | 0.00 | 0.00 | 0.00 | 71 | 1010.7 |
| 20260505005008 | 76 | 96 | 2.0 | 6.0 | 0.00 | 0.00 | 0.00 | 71 | 1010.6 |
| 20260505004542 | 76 | 105 | 2.0 | 7.0 | 0.00 | 0.00 | 0.00 | 71 | 1010.5 |
| 20260505004011 | 76 | 71 | 1.0 | 7.0 | 0.00 | 0.00 | 0.00 | 72 | 1010.6 |
| 20260505003509 | 76 | 74 | 3.0 | 7.0 | 0.00 | 0.00 | 0.00 | 71 | 1010.6 |
| 20260505003016 | 76 | 85 | 2.0 | 6.0 | 0.00 | 0.00 | 0.00 | 71 | 1010.4 |
| 20260505002514 | 76 | 72 | 3.0 | 6.0 | 0.00 | 0.00 | 0.00 | 70 | 1010.6 |
| 20260505002012 | 76 | 76 | 2.0 | 6.0 | 0.00 | 0.00 | 0.00 | 70 | 1010.5 |
| 20260505001522 | 76 | 80 | 2.0 | 6.0 | 0.00 | 0.00 | 0.00 | 70 | 1010.5 |
| 20260505001017 | 76 | 66 | 2.0 | 7.0 | 0.00 | 0.00 | 0.00 | 69 | 1010.5 |
| 20260505000508 | 76 | 67 | 2.0 | 7.0 | 0.00 | 0.00 | 0.00 | 69 | 1010.6 |
| 20260505000039 | 76 | 88 | 2.0 | 7.0 | 0.00 | 0.00 | 0.00 | 69 | 1010.7 |
| 20260504235510 | 77 | 91 | 2.0 | 7.0 | 0.00 | 0.00 | 0.00 | 69 | 1010.7 |
| 20260504235009 | 77 | 80 | 3.0 | 6.0 | 0.00 | 0.00 | 0.00 | 68 | 1010.7 |
| 20260504234526 | 77 | 96 | 2.0 | 7.0 | 0.00 | 0.00 | 0.00 | 69 | 1010.7 |
| 20260504234008 | 77 | 86 | 3.0 | 7.0 | 0.00 | 0.00 | 0.00 | 68 | 1010.7 |
| 20260504233513 | 77 | 72 | 3.0 | 8.0 | 0.00 | 0.00 | 0.00 | 68 | 1010.9 |
| 20260504231523 | 78 | 80 | 3.0 | 7.0 | 0.00 | 0.00 | 0.00 | 67 | 1010.9 |
| 20260504231012 | 78 | 83 | 3.0 | 7.0 | 0.00 | 0.00 | 0.00 | 67 | 1010.9 |
| 20260504230511 | 78 | 71 | 3.0 | 7.0 | 0.00 | 0.00 | 0.00 | 67 | 1010.9 |
| 20260504230026 | 78 | 96 | 2.0 | 7.0 | 0.00 | 0.00 | 0.00 | 66 | 1011.2 |
| 20260504225507 | 78 | 72 | 3.0 | 7.0 | 0.00 | 0.00 | 0.00 | 64 | 1011.1 |
| 20260504225012 | 78 | 70 | 3.0 | 6.0 | 0.00 | 0.00 | 0.00 | 64 | 1011.1 |
| 20260504224514 | 79 | 83 | 3.0 | 8.0 | 0.00 | 0.00 | 0.00 | 64 | 1011.1 |
| 20260504224011 | 79 | 79 | 2.0 | 8.0 | 0.00 | 0.00 | 0.00 | 63 | 1011.1 |
| 20260504223507 | 79 | 86 | 3.0 | 6.0 | 0.00 | 0.00 | 0.00 | 63 | 1011.3 |
| 20260504223020 | 79 | 93 | 2.0 | 5.0 | 0.00 | 0.00 | 0.00 | 62 | 1011.2 |
| 20260504222510 | 79 | 68 | 2.0 | 8.0 | 0.00 | 0.00 | 0.00 | 61 | 1011.3 |
| 20260504222007 | 79 | 60 | 3.0 | 8.0 | 0.00 | 0.00 | 0.00 | 61 | 1011.3 |
| 20260504221505 | 79 | 97 | 2.0 | 7.0 | 0.00 | 0.00 | 0.00 | 61 | 1011.4 |
| 20260504221008 | 79 | 53 | 1.0 | 8.0 | 0.00 | 0.00 | 0.00 | 62 | 1011.5 |
| 20260504220505 | 79 | 62 | 3.0 | 8.0 | 0.00 | 0.00 | 0.00 | 61 | 1011.6 |
| 20260504220012 | 79 | 64 | 1.0 | 5.0 | 0.00 | 0.00 | 0.00 | 61 | 1011.5 |
| 20260504215507 | 79 | 85 | 2.0 | 5.0 | 0.00 | 0.00 | 0.00 | 60 | 1011.5 |
| 20260504215008 | 80 | 76 | 2.0 | 5.0 | 0.00 | 0.00 | 0.00 | 61 | 1011.8 |
| 20260504214514 | 80 | 61 | 2.0 | 5.0 | 0.00 | 0.00 | 0.00 | 59 | 1011.7 |
| 20260504214009 | 80 | 123 | 3.0 | 6.0 | 0.00 | 0.00 | 0.00 | 58 | 1011.8 |
| 20260504213508 | 81 | 70 | 2.0 | 6.0 | 0.00 | 0.00 | 0.00 | 58 | 1011.8 |
| 20260504213023 | 80 | 63 | 1.0 | 6.0 | 0.00 | 0.00 | 0.00 | 59 | 1011.9 |
| 20260504212512 | 80 | 74 | 2.0 | 6.0 | 0.00 | 0.00 | 0.00 | 58 | 1012.1 |
| 20260504212002 | 80 | 60 | 2.0 | 5.0 | 0.00 | 0.00 | 0.00 | 59 | 1011.9 |
| 20260504211506 | 80 | 91 | 2.0 | 5.0 | 0.00 | 0.00 | 0.00 | 58 | 1012.0 |
| 20260504211005 | 80 | 85 | 2.0 | 7.0 | 0.00 | 0.00 | 0.00 | 57 | 1012.1 |
| 20260504210504 | 81 | 65 | 1.0 | 7.0 | 0.00 | 0.00 | 0.00 | 56 | 1012.2 |
| 20260504210018 | 81 | 59 | 1.0 | 6.0 | 0.00 | 0.00 | 0.00 | 56 | 1012.1 |
| 20260504205505 | 81 | 78 | 2.0 | 6.0 | 0.00 | 0.00 | 0.00 | 57 | 1012.2 |
| 20260504205008 | 81 | 59 | 2.0 | 6.0 | 0.00 | 0.00 | 0.00 | 56 | 1012.3 |
| 20260504204516 | 81 | 50 | 2.0 | 6.0 | 0.00 | 0.00 | 0.00 | 56 | 1012.5 |
| 20260504204010 | 81 | 64 | 1.0 | 4.0 | 0.00 | 0.00 | 0.00 | 56 | 1012.6 |
| 20260504203514 | 81 | 342 | 0.0 | 4.0 | 0.00 | 0.00 | 0.00 | 58 | 1012.6 |
| 20260504203027 | 81 | 97 | 1.0 | 4.0 | 0.00 | 0.00 | 0.00 | 56 | 1012.6 |
| 20260504202513 | 81 | 94 | 2.0 | 6.0 | 0.00 | 0.00 | 0.00 | 59 | 1012.6 |
| 20260504202007 | 81 | 55 | 1.0 | 6.0 | 0.00 | 0.00 | 0.00 | 56 | 1012.9 |
| 20260504201507 | 81 | 74 | 1.0 | 5.0 | 0.00 | 0.00 | 0.00 | 55 | 1012.9 |
| 20260504201004 | 81 | 71 | 3.0 | 5.0 | 0.00 | 0.00 | 0.00 | 58 | 1013.1 |
| 20260504200505 | 81 | 59 | 2.0 | 5.0 | 0.00 | 0.00 | 0.00 | 54 | 1013.2 |
| 20260504200013 | 82 | 77 | 1.0 | 5.0 | 0.00 | 0.00 | 0.00 | 57 | 1013.3 |
| 20260504195507 | 81 | 37 | 1.0 | 7.0 | 0.00 | 0.00 | 0.00 | 57 | 1013.4 |
| 20260504195008 | 80 | 74 | 3.0 | 7.0 | 0.00 | 0.00 | 0.00 | 58 | 1013.4 |
| 20260504194522 | 80 | 88 | 2.0 | 6.0 | 0.00 | 0.00 | 0.00 | 59 | 1013.5 |
| 20260504194011 | 80 | 86 | 2.0 | 6.0 | 0.00 | 0.00 | 0.00 | 57 | 1013.5 |
| 20260504193508 | 80 | 78 | 3.0 | 5.0 | 0.00 | 0.00 | 0.00 | 56 | 1013.6 |
| 20260504193025 | 81 | 74 | 0.0 | 4.0 | 0.00 | 0.00 | 0.00 | 54 | 1013.7 |
| 20260504192508 | 81 | 36 | 1.0 | 4.0 | 0.00 | 0.00 | 0.00 | 57 | 1013.7 |
| 20260504192012 | 82 | 279 | 1.0 | 4.0 | 0.00 | 0.00 | 0.00 | 55 | 1013.8 |
| 20260504191527 | 83 | 277 | 1.0 | 7.0 | 0.00 | 0.00 | 0.00 | 54 | 1013.8 |
| 20260504191011 | 82 | 277 | 1.0 | 7.0 | 0.00 | 0.00 | 0.00 | 53 | 1014.0 |
| 20260504190511 | 81 | 352 | 1.0 | 8.0 | 0.00 | 0.00 | 0.00 | 57 | 1014.1 |
| 20260504190020 | 80 | 74 | 2.0 | 8.0 | 0.00 | 0.00 | 0.00 | 58 | 1014.1 |
| 20260504185006 | 81 | 79 | 2.0 | 5.0 | 0.00 | 0.00 | 0.00 | 55 | 1014.4 |
| 20260504182508 | 81 | 32 | 1.0 | 8.0 | 0.00 | 0.00 | 0.00 | 60 | 1014.5 |
| 20260504182014 | 79 | 84 | 1.0 | 8.0 | 0.00 | 0.00 | 0.00 | 59 | 1014.4 |
| 20260504181532 | 80 | 82 | 1.0 | 6.0 | 0.00 | 0.00 | 0.00 | 58 | 1014.4 |
| 20260504181010 | 80 | 70 | 1.0 | 6.0 | 0.00 | 0.00 | 0.00 | 56 | 1014.5 |
| 20260504180021 | 80 | 105 | 2.0 | 7.0 | 0.00 | 0.00 | 0.00 | 59 | 1014.9 |
| 20260504175010 | 80 | 68 | 1.0 | 7.0 | 0.00 | 0.00 | 0.00 | 55 | 1014.9 |
| 20260504174525 | 80 | 64 | 1.0 | 7.0 | 0.00 | 0.00 | 0.00 | 60 | 1014.9 |
| 20260504173508 | 80 | 63 | 0.0 | 6.0 | 0.00 | 0.00 | 0.00 | 59 | 1015.1 |
| 20260504171526 | 78 | 67 | 2.0 | 7.0 | 0.00 | 0.00 | 0.00 | 57 | 1015.3 |
| 20260504171012 | 79 | 84 | 2.0 | 7.0 | 0.00 | 0.00 | 0.00 | 59 | 1015.5 |
| 20260504170508 | 79 | 271 | 2.0 | 5.0 | 0.00 | 0.00 | 0.00 | 57 | 1015.5 |
| 20260504151007 | 75 | 54 | 1.0 | 6.0 | 0.00 | 0.00 | 0.00 | 64 | 1016.2 |
| 20260504150511 | 75 | 72 | 1.0 | 7.0 | 0.00 | 0.00 | 0.00 | 63 | 1016.2 |
| 20260504141010 | 71 | 74 | 1.0 | 6.0 | 0.00 | 0.00 | 0.00 | 65 | 1016.2 |
| 20260504140511 | 71 | 89 | 2.0 | 6.0 | 0.00 | 0.00 | 0.00 | 65 | 1016.3 |
| 20260504130507 | 65 | 78 | 1.0 | 4.0 | 0.00 | 0.00 | 0.00 | 72 | 1016.1 |
| 20260504110508 | 60 | 58 | 0.0 | 1.0 | 0.00 | 0.00 | 0.00 | 81 | 1015.8 |
| 20260504100512 | 60 | 57 | 0.0 | 0.0 | 0.00 | 0.00 | 0.00 | 80 | 1016.1 |
| 20260504081528 | 62 | 48 | 0.0 | 0.0 | 0.00 | 0.00 | 0.00 | 75 | 1016.5 |
| 20260504081010 | 62 | 48 | 0.0 | 0.0 | 0.00 | 0.00 | 0.00 | 74 | 1016.6 |
| 20260504080508 | 62 | 53 | 0.0 | 0.0 | 0.00 | 0.00 | 0.00 | 75 | 1016.7 |
| 20260504050503 | 64 | 57 | 0.0 | 0.0 | 0.00 | 0.00 | 0.00 | 69 | 1018.6 |
| 20260504050012 | 64 | 57 | 0.0 | 0.0 | 0.00 | 0.00 | 0.00 | 67 | 1018.6 |
| 20260504045504 | 65 | 57 | 0.0 | 0.0 | 0.00 | 0.00 | 0.00 | 66 | 1018.6 |
| 20260504045003 | 65 | 57 | 0.0 | 0.0 | 0.00 | 0.00 | 0.00 | 66 | 1018.6 |
| 20260504044509 | 65 | 57 | 0.0 | 1.0 | 0.00 | 0.00 | 0.00 | 65 | 1018.6 |
| 20260504044003 | 66 | 55 | 0.0 | 1.0 | 0.00 | 0.00 | 0.00 | 64 | 1018.7 |
| 20260504043503 | 66 | 55 | 0.0 | 1.0 | 0.00 | 0.00 | 0.00 | 63 | 1018.8 |
| 20260504043008 | 66 | 57 | 0.0 | 2.0 | 0.00 | 0.00 | 0.00 | 62 | 1018.7 |
| 20260504042504 | 66 | 54 | 0.0 | 2.0 | 0.00 | 0.00 | 0.00 | 61 | 1018.7 |
| 20260504042004 | 67 | 74 | 0.0 | 3.0 | 0.00 | 0.00 | 0.00 | 62 | 1018.7 |
| 20260504041510 | 67 | 61 | 0.0 | 3.0 | 0.00 | 0.00 | 0.00 | 61 | 1018.7 |
| 20260504041007 | 67 | 71 | 1.0 | 2.0 | 0.00 | 0.00 | 0.00 | 61 | 1018.7 |
| 20260504040507 | 67 | 74 | 0.0 | 3.0 | 0.00 | 0.00 | 0.00 | 61 | 1018.7 |
| 20260504040008 | 67 | 76 | 0.0 | 3.0 | 0.00 | 0.00 | 0.00 | 61 | 1018.7 |
| 20260504035505 | 67 | 76 | 0.0 | 3.0 | 0.00 | 0.00 | 0.00 | 61 | 1018.6 |
| 20260504035004 | 67 | 63 | 0.0 | 3.0 | 0.00 | 0.00 | 0.00 | 60 | 1018.6 |
| 20260504034510 | 67 | 67 | 1.0 | 3.0 | 0.00 | 0.00 | 0.00 | 60 | 1018.6 |
| 20260504034007 | 68 | 49 | 1.0 | 4.0 | 0.00 | 0.00 | 0.00 | 59 | 1018.7 |
| 20260504033505 | 68 | 84 | 1.0 | 4.0 | 0.00 | 0.00 | 0.00 | 59 | 1018.8 |
| 20260504033011 | 68 | 81 | 0.0 | 4.0 | 0.00 | 0.00 | 0.00 | 59 | 1018.9 |
| 20260504032509 | 68 | 85 | 1.0 | 4.0 | 0.00 | 0.00 | 0.00 | 58 | 1018.9 |
| 20260504032008 | 68 | 73 | 1.0 | 3.0 | 0.00 | 0.00 | 0.00 | 58 | 1018.8 |
| 20260504031511 | 68 | 84 | 0.0 | 3.0 | 0.00 | 0.00 | 0.00 | 58 | 1018.8 |
| 20260504031004 | 68 | 64 | 0.0 | 2.0 | 0.00 | 0.00 | 0.00 | 59 | 1018.7 |
| 20260504030504 | 68 | 69 | 0.0 | 3.0 | 0.00 | 0.00 | 0.00 | 57 | 1018.7 |
| 20260504030009 | 69 | 71 | 0.0 | 3.0 | 0.00 | 0.00 | 0.00 | 56 | 1018.7 |
| 20260504025503 | 69 | 70 | 0.0 | 2.0 | 0.00 | 0.00 | 0.00 | 56 | 1018.6 |
| 20260504025007 | 69 | 66 | 0.0 | 2.0 | 0.00 | 0.00 | 0.00 | 56 | 1018.6 |
| 20260504024511 | 69 | 62 | 0.0 | 3.0 | 0.00 | 0.00 | 0.00 | 55 | 1018.5 |
| 20260504024007 | 69 | 80 | 0.0 | 4.0 | 0.00 | 0.00 | 0.00 | 55 | 1018.4 |
| 20260504023506 | 70 | 81 | 0.0 | 4.0 | 0.00 | 0.00 | 0.00 | 56 | 1018.4 |
| 20260504023013 | 70 | 76 | 1.0 | 3.0 | 0.00 | 0.00 | 0.00 | 55 | 1018.3 |
| 20260504022509 | 70 | 78 | 1.0 | 4.0 | 0.00 | 0.00 | 0.00 | 53 | 1018.3 |